{"data":{"norad_id":59190,"epoch":"2026-05-25T01:26:59.169120Z","epoch_age_seconds":73035,"freshness":"FRESH","line1":"1 59190U 24045N   26145.06040705  .00000797  00000+0  38469-4 0  9995","line2":"2 59190  43.0041  21.0393 0001171 267.8981  92.1736 15.27584885124847","mean_motion":15.27584885,"eccentricity":0.0001171,"inclination_deg":43.0041,"raan_deg":21.0393,"arg_perigee_deg":267.8981,"mean_anomaly_deg":92.1736,"bstar":3.8469e-5,"rev_number":12484,"period_min":94.266447261947,"perigee_km":482.23102545229,"apogee_km":483.83791181024,"semimajor_km":6861.1714686313,"source":"CELESTRAK","updated_at":"2026-05-25T13:38:18.861181Z"}}